Findlay, OH

2:58 PM EDT on August 21, 2017 (GMT -0400)
Findlay

Weather History for KFDY - February, 2015

Change the Weather History Date:

Saturday, February 14, 2015

  Actual Average Record
Temperature  
Mean Temperature 17 °F -  
Max Temperature 28 °F 34 °F 62 °F (1950)
Min Temperature 5 °F 20 °F 1 °F (1971)
Degree Days  
Heating Degree Days 48    
Moisture  
Dew Point 12 °F    
Average Humidity 70    
Maximum Humidity 89    
Minimum Humidity 49    
Precipitation  
Precipitation 0.00 in - - ()
Sea Level Pressure  
Sea Level Pressure 29.79 in    
Wind  
Wind Speed 20 mph (WNW)    
Max Wind Speed 30 mph    
Max Gust Speed 43 mph    
Visibility 5 miles    
Events Fog , Snow    
Averages and records for this station are not official NWS values.
T = Trace of Precipitation, MM = Missing Value Source: NWS Daily Summary

Daily Weather History Graph

Daily Weather History Graph

Search for Another Location

Airport or City:

Trip Planner

Search our weather history database for the weather conditions in past years. The results will help you decide how hot, cold, wet, or windy it might be!

Date:

Astronomy

Feb. 14, 2015 Rise Set
Actual Time 7:30 AM EST 6:07 PM EST
Civil Twilight 7:02 AM EST 6:35 PM EST
Nautical Twilight 6:30 AM EST 7:08 PM EST
Astronomical Twilight 5:58 AM EST 7:40 PM EST
Moon 3:33 AM EST (2/14) 1:39 PM EST (2/14)
Length of Visible Light 11h 33m
Length of Day
10h 36m
Waning Crescent, 24% of the Moon is Illuminated
Feb 14
Waning Crescent
Feb 18
New
Feb 25
First Quarter
Mar 5
Full
Mar 13
Last Quarter

Hourly Weather History & Observations

Time (EST) Temp. Windchill Dew Point Humidity Pressure Visibility Wind Dir Wind Speed Gust Speed Precip Events Conditions
12:53 AM 27.0 °F 14.3 °F 14.0 °F 58% 29.90 in 10.0 mi WSW 17.3 mph 25.3 mph N/A   Overcast
1:53 AM 27.0 °F 13.9 °F 15.1 °F 61% 29.86 in 10.0 mi SW 18.4 mph - N/A   Overcast
2:53 AM 28.0 °F 14.3 °F 16.0 °F 61% 29.83 in 10.0 mi WSW 21.9 mph 28.8 mph N/A   Overcast
3:53 AM 28.0 °F 16.1 °F 17.1 °F 63% 29.78 in 10.0 mi SW 16.1 mph 26.5 mph N/A   Overcast
4:53 AM 28.9 °F 17.7 °F 17.1 °F 61% 29.75 in 10.0 mi WSW 15.0 mph - N/A   Overcast
5:32 AM 28.9 °F 17.3 °F 18.0 °F 64% 29.71 in 10.0 mi WSW 16.1 mph 25.3 mph N/A   Overcast
5:53 AM 28.9 °F 16.1 °F 19.0 °F 67% 29.73 in 10.0 mi WSW 19.6 mph 28.8 mph N/A   Overcast
6:53 AM 28.0 °F 14.9 °F 19.9 °F 72% 29.71 in 9.0 mi West 19.6 mph 27.6 mph N/A   Overcast
7:35 AM 27.0 °F 15.2 °F 21.0 °F 78% 29.66 in 5.0 mi WSW 15.0 mph - 0.00 in Snow Light Snow
7:53 AM 27.0 °F 14.7 °F 21.9 °F 81% 29.68 in 5.0 mi WSW 16.1 mph - 0.00 in Snow Light Snow
8:35 AM 27.0 °F 13.9 °F 23.0 °F 85% 29.64 in 1.8 mi WSW 18.4 mph - 0.00 in Snow Light Snow
8:42 AM 27.0 °F 14.3 °F 23.0 °F 85% 29.64 in 0.8 mi WSW 17.3 mph - 0.00 in Snow Light Snow
8:53 AM 27.0 °F 15.2 °F 24.1 °F 89% 29.65 in 0.8 mi WSW 15.0 mph - 0.00 in Snow Light Snow
9:08 AM 27.0 °F 13.9 °F 23.0 °F 85% 29.62 in 1.0 mi WSW 18.4 mph - 0.00 in Snow Light Snow
9:17 AM 27.0 °F 13.5 °F 23.0 °F 85% 29.62 in 1.8 mi WSW 19.6 mph 27.6 mph 0.00 in Snow Light Snow
9:21 AM 27.0 °F 13.5 °F 23.0 °F 85% 29.62 in 2.0 mi WSW 19.6 mph - 0.00 in Snow Light Snow
9:39 AM 28.0 °F 14.9 °F 23.0 °F 81% 29.61 in 3.0 mi West 19.6 mph 27.6 mph 0.00 in Snow Light Snow
9:46 AM 28.0 °F 15.3 °F 23.0 °F 81% 29.61 in 1.8 mi West 18.4 mph - 0.00 in Snow Light Snow
9:53 AM 28.0 °F 14.9 °F 23.0 °F 81% 29.63 in 0.8 mi West 19.6 mph 28.8 mph 0.00 in Snow Light Snow
10:15 AM 27.0 °F 12.5 °F 21.9 °F 81% 29.61 in 0.8 mi West 23.0 mph 28.8 mph 0.00 in Snow Light Snow
10:23 AM 26.1 °F 12.0 °F 21.9 °F 84% 29.60 in 1.0 mi West 20.7 mph - 0.00 in Snow Light Snow
10:28 AM 26.1 °F 12.7 °F 21.0 °F 81% 29.60 in 4.0 mi West 18.4 mph - 0.00 in Snow Light Snow
10:38 AM 26.1 °F 10.4 °F 19.9 °F 78% 29.61 in 1.8 mi WNW 26.5 mph 38.0 mph 0.00 in Snow Light Snow
10:54 AM 23.0 °F 6.0 °F 19.0 °F 85% 29.64 in - NW 27.6 mph 36.8 mph 0.00 in Snow Snow
11:01 AM 21.9 °F 6.2 °F 18.0 °F 85% 29.62 in 0.2 mi NW 21.9 mph 39.1 mph 0.00 in Fog , Snow Snow
11:08 AM 23.0 °F 8.0 °F 17.1 °F 78% 29.62 in 1.0 mi WNW 20.7 mph 32.2 mph 0.00 in Snow Light Snow
11:13 AM 24.1 °F 8.3 °F 17.1 °F 75% 29.62 in 4.0 mi WNW 24.2 mph 32.2 mph 0.00 in Snow Light Snow
11:38 AM 23.0 °F 5.4 °F 16.0 °F 74% 29.65 in 1.8 mi NW 29.9 mph 42.6 mph 0.00 in Snow Light Snow
11:48 AM 21.2 °F 6.0 °F 15.8 °F 80% 29.66 in 0.8 mi NNW 19.6 mph 41.4 mph 0.00 in Snow Light Snow
11:53 AM 21.0 °F 7.6 °F 15.1 °F 78% 29.69 in 2.5 mi NNW 15.0 mph 27.6 mph 0.00 in Snow Light Snow
12:08 PM 21.0 °F 5.7 °F 14.0 °F 74% 29.67 in 1.0 mi NNW 19.6 mph 31.1 mph 0.00 in Snow Light Snow
12:23 PM 19.9 °F 6.2 °F 14.0 °F 78% 29.67 in 2.0 mi NW 15.0 mph 28.8 mph 0.00 in Snow Light Snow
12:31 PM 19.9 °F 2.5 °F 14.0 °F 78% 29.68 in 0.8 mi NNW 25.3 mph 32.2 mph 0.00 in Snow Light Snow
12:35 PM 19.0 °F 4.5 °F 14.0 °F 81% 29.69 in 0.2 mi NW 16.1 mph 32.2 mph 0.00 in Snow Heavy Snow
12:51 PM 17.6 °F 1.7 °F 12.2 °F 79% 29.72 in 0.2 mi NNW 18.4 mph 39.1 mph 0.00 in Snow Heavy Snow
12:53 PM 16.0 °F -2.5 °F 12.0 °F 84% 29.75 in 0.2 mi NW 24.2 mph 39.1 mph 0.00 in Fog , Snow Heavy Snow
1:16 PM 15.1 °F -4.0 °F 9.0 °F 77% 29.75 in 0.2 mi NNW 25.3 mph 38.0 mph 0.00 in Snow Heavy Snow
1:27 PM 16.0 °F -2.5 °F 8.1 °F 71% 29.76 in 0.5 mi NNW 24.2 mph 38.0 mph 0.00 in Snow Snow
1:38 PM 16.0 °F -1.7 °F 7.0 °F 68% 29.77 in 1.2 mi NNW 21.9 mph 38.0 mph 0.00 in Snow Light Snow
1:53 PM 17.1 °F 0.6 °F 6.1 °F 62% 29.81 in 3.0 mi NNW 19.6 mph 34.5 mph 0.00 in   Overcast
2:53 PM 16.0 °F -0.9 °F 1.0 °F 52% 29.86 in 10.0 mi NNW 19.6 mph 32.2 mph 0.00 in   Overcast
3:14 PM 15.1 °F -5.0 °F 1.9 °F 56% 29.85 in 1.8 mi NW 28.8 mph 35.7 mph 0.00 in Snow Light Snow
3:27 PM 14.0 °F -4.3 °F -0.0 °F 54% 29.86 in 3.0 mi NW 21.9 mph 31.1 mph 0.00 in Snow Light Snow
3:53 PM 15.1 °F -4.7 °F -0.9 °F 49% 29.93 in 4.0 mi NW 27.6 mph 42.6 mph 0.00 in   Overcast
4:01 PM 12.0 °F -8.8 °F 1.0 °F 61% 29.90 in 1.5 mi NW 27.6 mph 42.6 mph 0.00 in Snow Light Snow
4:14 PM 12.0 °F -6.5 °F 1.9 °F 64% 29.92 in 4.0 mi WNW 20.7 mph 31.1 mph 0.00 in Snow Light Snow
4:53 PM 12.0 °F -8.5 °F -0.9 °F 56% 29.98 in 8.0 mi WNW 26.5 mph 35.7 mph 0.00 in   Mostly Cloudy
5:53 PM 10.0 °F -8.6 °F -2.0 °F 58% 30.04 in 10.0 mi NW 19.6 mph 32.2 mph N/A   Clear
6:53 PM 9.0 °F -9.5 °F -5.1 °F 53% 30.10 in 10.0 mi NW 18.4 mph 31.1 mph N/A   Clear
7:53 PM 9.0 °F -11.0 °F -4.0 °F 56% 30.14 in 10.0 mi NW 21.9 mph 31.1 mph N/A   Scattered Clouds
8:28 PM 9.0 °F -11.4 °F -2.9 °F 59% 30.14 in 10.0 mi NW 23.0 mph 33.4 mph N/A   Mostly Cloudy
8:35 PM 9.0 °F -11.8 °F -2.9 °F 59% 30.15 in 10.0 mi NW 24.2 mph 32.2 mph N/A   Mostly Cloudy
8:53 PM 8.1 °F -10.7 °F -2.9 °F 61% 30.20 in 10.0 mi NW 18.4 mph 28.8 mph N/A   Scattered Clouds
9:53 PM 8.1 °F -10.2 °F -7.1 °F 50% 30.23 in 10.0 mi NNW 17.3 mph 27.6 mph N/A   Clear
10:53 PM 6.1 °F -11.6 °F -8.0 °F 53% 30.27 in 10.0 mi NNW 15.0 mph 26.5 mph N/A   Clear
11:53 PM 5.0 °F -13.0 °F -9.0 °F 52% 30.29 in 10.0 mi NNW 15.0 mph - N/A   Clear